Tracking 20623 objects as of 5-Apr-2020
HD Live streaming from Space Station
objects crossing your sky now

SATCOM 3 DEB

Track SATCOM 3 DEB now!


NORAD ID: 38689
Int'l Code: 1979-101Y
Perigee: 8,478.5 km
Apogee: 35,652.1 km
Inclination: 9.2 °
Period: 795.4 minutes
Semi major axis: 28436 km
RCS: 0.01 m2 (small)
Launch date: December 7, 1979
Source: United States (US)
Launch site: AIR FORCE EASTERN TEST RANGE (AFETR)

Note: This is SATELLITE DEBRIS
aabbcc
Your satellite tracking list
Your tracking list is empty




NASA's NSSDC Master Catalog

Two Line Element Set (TLE):
1 38689U 79101Y   18015.35660510 -.00000073 +00000-0 +00000-0 0  9994
2 38689 009.2210 065.5873 4777973 163.7387 219.2645 01.81048061064023
Source of the keplerian elements: AFSPC